Weather History for Amarillo, TX

Change the Weather History Date:

Thursday, September 19, 2013

  Actual Average Record
Temperature  
Mean Temperature 73 °F 68 °F  
Max Temperature 83 °F 82 °F 98 °F (1983)
Min Temperature 63 °F 55 °F 41 °F (1991)
Degree Days  
Heating Degree Days 0 2  
Month to date heating degree days 0 12  
Since 1 July heating degree days 0 13  
Cooling Degree Days 8 5  
Month to date cooling degree days 235 139  
Year to date cooling degree days 1731 1331  
Growing Degree Days 22 (Base 50)    
Moisture  
Dew Point 61 °F    
Average Humidity 72    
Maximum Humidity 93    
Minimum Humidity 51    
Precipitation  
Precipitation 0.58 in 0.06 in 1.49 in (1978)
Month to date precipitation 1.29 1.25  
Year to date precipitation 13.66 16.52  
Snow  
Snow 0.00 in 0.00 in T in (2007)
Month to date snowfall 0.0 0.0  
Since 1 July snowfall 0.0 0.0  
Since 1 September snowfall 0.0 0.0  
Snow Depth 0.00 in    
Sea Level Pressure  
Sea Level Pressure 29.89 in    
Wind  
Wind Speed 13 mph (SSW)    
Max Wind Speed 32 mph    
Max Gust Speed 38 mph    
Visibility 9 miles    
Events Rain    
T = Trace of Precipitation, MM = Missing Value Source: NWS Daily Summary

Daily Weather History Graph

Daily Weather History Graph

Search for Another Location

Airport:

Trip Planner

Search our weather history database for the weather conditions in past years. The results will help you decide how hot, cold, wet, or windy it might be!

Date:

Astronomy

Sep. 19, 2013 Rise Set
Actual Time 7:32 AM CDT 7:47 PM CDT
Civil Twilight 7:07 AM CDT 8:12 PM CDT
Nautical Twilight 6:37 AM CDT 8:42 PM CDT
Astronomical Twilight 6:07 AM CDT 9:12 PM CDT
Moon 7:50 PM CDT (9/19) 7:42 AM CDT (9/19)
Length of Visible Light 13h 05m
Length of Day
12h 14m
Full, 100% of the Moon is Illuminated
Sep 19
Full
Sep 26
Last Quarter
Oct 4
New
Oct 11
First Quarter
Oct 18
Full

Hourly Weather History & Observations

Time (CDT) Temp. Heat Index Dew Point Humidity Pressure Visibility Wind Dir Wind Speed Gust Speed Precip Events Conditions
12:53 AM 71.1 °F - 59.0 °F 66% 29.81 in 10.0 mi South 20.7 mph 25.3 mph N/A   Clear
1:53 AM 70.0 °F - 59.0 °F 68% 29.81 in 10.0 mi South 17.3 mph - N/A   Clear
2:53 AM 69.1 °F - 59.0 °F 70% 29.81 in 10.0 mi South 16.1 mph - N/A   Partly Cloudy
3:53 AM 66.9 °F - 60.1 °F 79% 29.81 in 10.0 mi South 13.8 mph - N/A   Clear
4:53 AM 66.0 °F - 60.1 °F 81% 29.81 in 10.0 mi South 12.7 mph - N/A   Clear
5:53 AM 64.9 °F - 60.1 °F 84% 29.83 in 10.0 mi South 8.1 mph - N/A   Clear
6:53 AM 64.0 °F - 60.1 °F 87% 29.85 in 10.0 mi Calm Calm - N/A   Mostly Cloudy
7:53 AM 64.0 °F - 61.0 °F 90% 29.87 in 10.0 mi SSE 5.8 mph - N/A   Clear
8:53 AM 64.9 °F - 62.1 °F 90% 29.88 in 10.0 mi South 9.2 mph - N/A   Clear
9:45 AM 71.6 °F - 62.6 °F 73% 30.04 in 10.0 mi SW 15.0 mph 19.6 mph N/A   Mostly Cloudy
9:53 AM 72.0 °F - 63.0 °F 73% 29.89 in 10.0 mi SSW 16.1 mph - N/A   Overcast
10:10 AM 73.4 °F - 62.6 °F 69% 30.04 in 10.0 mi SSW 15.0 mph - N/A   Mostly Cloudy
10:53 AM 75.0 °F - 64.0 °F 69% 29.90 in 10.0 mi SW 12.7 mph - N/A   Mostly Cloudy
11:05 AM 75.2 °F - 62.6 °F 65% 30.04 in 10.0 mi SSW 13.8 mph - N/A   Scattered Clouds
11:53 AM 77.0 °F - 64.0 °F 64% 29.88 in 10.0 mi SW 15.0 mph 25.3 mph N/A   Scattered Clouds
12:53 PM 77.0 °F - 63.0 °F 62% 29.87 in 10.0 mi SSW 9.2 mph - 0.00 in   Scattered Clouds
1:53 PM 79.0 °F - 64.0 °F 60% 29.85 in 10.0 mi SW 9.2 mph - N/A   Mostly Cloudy
2:53 PM 81.0 °F 82.2 °F 63.0 °F 54% 29.82 in 10.0 mi South 13.8 mph 18.4 mph N/A   Scattered Clouds
3:53 PM 82.0 °F 83.1 °F 63.0 °F 52% 29.81 in 10.0 mi South 16.1 mph 21.9 mph N/A   Scattered Clouds
4:53 PM 82.0 °F 83.1 °F 63.0 °F 52% 29.80 in 10.0 mi South 18.4 mph 21.9 mph N/A   Scattered Clouds
5:53 PM 78.1 °F - 64.0 °F 62% 29.80 in 10.0 mi SSE 21.9 mph 27.6 mph N/A   Scattered Clouds
6:53 PM 75.0 °F - 64.9 °F 71% 29.86 in 10.0 mi SW 10.4 mph - N/A   Overcast
7:04 PM 69.8 °F - 62.6 °F 78% 30.01 in 2.0 mi NNW 18.4 mph 25.3 mph 0.01 in Rain Rain
7:16 PM 66.2 °F - 62.6 °F 88% 29.95 in 1.8 mi West 15.0 mph - 0.06 in Rain Heavy Rain
7:19 PM 66.2 °F - 62.6 °F 88% 29.95 in 0.8 mi SW 23.0 mph - 0.16 in Rain Heavy Rain
7:26 PM 66.2 °F - 60.8 °F 83% 29.96 in 0.5 mi SSW 21.9 mph 36.8 mph 0.47 in Rain Heavy Rain
7:29 PM 64.4 °F - 60.8 °F 88% 29.96 in 0.8 mi SSW 17.3 mph 36.8 mph 0.52 in Rain Heavy Rain
7:32 PM 64.4 °F - 60.8 °F 88% 29.96 in 1.2 mi SW 12.7 mph 26.5 mph 0.55 in Rain Rain
7:36 PM 64.4 °F - 60.8 °F 88% 29.96 in 3.0 mi SSW 20.7 mph 26.5 mph 0.56 in Rain Rain
7:53 PM 64.9 °F - 57.9 °F 78% 29.84 in 10.0 mi South 21.9 mph 28.8 mph 0.57 in Rain Light Rain
8:40 PM 66.2 °F - 53.6 °F 64% 29.98 in 10.0 mi WSW 17.3 mph 29.9 mph 0.00 in   Mostly Cloudy
8:53 PM 66.9 °F - 54.0 °F 63% 29.88 in 10.0 mi SW 12.7 mph 23.0 mph 0.00 in   Overcast
9:26 PM 64.4 °F - 57.2 °F 77% 29.99 in 10.0 mi SSW 16.1 mph - 0.00 in Rain Light Rain
9:53 PM 63.0 °F - 57.9 °F 84% 29.86 in 10.0 mi South 18.4 mph - 0.00 in Rain Light Rain
10:30 PM 64.4 °F - 57.2 °F 77% 30.02 in 10.0 mi Variable 6.9 mph - 0.00 in Rain Light Rain
10:53 PM 64.0 °F - 57.9 °F 80% 29.91 in 10.0 mi North 15.0 mph - 0.01 in   Overcast
11:53 PM 64.9 °F - 62.1 °F 90% 29.92 in 10.0 mi ENE 15.0 mph 20.7 mph N/A   Clear